#timestamp,LO_Frequency,Hit,StdDev 
1546660815.0,286047002.0,N
1546660815.9,286047002.0,N
1546660835.8,286047001.0,N
1546660855.6,286047001.0,N
1546660875.4,286047002.5,N
1546660895.3,286047003.8,N
1546660915.1,286047002.1,N
1546660935.8,286046998.5,N
1546660955.7,286046999.7,N
1546660975.5,286047002.5,N
1546660995.4,286047004.0,N
1546661015.2,286047002.7,N
1546661035.0,286046999.9,N
1546661035.9,286046999.9,N
1546661055.8,286047000.6,N
1546661075.6,286047000.0,N
1546661095.4,286047001.8,N
1546661115.3,286047001.6,N
1546661135.1,286047004.4,N
1546661155.9,286047001.9,N
1546661175.7,286047000.1,N
1546661195.5,286047003.4,N
1546661215.4,286047003.8,N
1546661235.2,286047004.3,N
1546661255.0,286047002.7,N
1546661255.9,286047002.7,N
1546661275.8,286047002.6,N
1546661295.6,286047002.8,N
1546661315.5,286046999.7,N
1546661335.3,286047000.2,N
1546661355.1,286046998.2,N
1546661375.9,286047000.9,N
1546661395.7,286046998.2,N
1546661415.5,286046999.4,N
1546661435.4,286046999.1,N
1546661455.2,286046996.7,N
1546661475.1,286046996.5,N
1546661476.0,286046996.5,N
1546661495.8,286046998.6,N
1546661515.6,286047001.2,N
1546661535.5,286046998.5,N
1546661555.3,286046998.1,N
1546661575.1,286046999.6,N
1546661595.9,286046999.4,N
1546661615.7,286046999.1,N
1546661635.6,286046998.1,N
1546661655.4,286047000.8,N
1546661675.2,286046996.5,N
1546661695.1,286046998.5,N
1546661696.0,286046998.5,N
1546661715.8,286046998.3,N
1546661735.6,286047000.1,N
1546661755.5,286047000.5,N
1546661775.3,286047001.8,N
1546661795.2,286047000.2,N
1546661815.9,286047002.5,N
1546661835.7,286047000.5,N
1546661855.6,286046998.5,N
1546661875.4,286047002.1,N
1546661895.2,286047000.4,N
1546661915.1,286047000.7,N
1546661916.0,286047000.7,N
1546661935.8,286046998.5,N
1546661955.7,286046998.1,N
1546661975.5,286046998.8,N
1546661995.3,286047001.2,N
1546662015.2,286047001.2,N
1546662035.9,286047000.4,N
1546662055.7,286046996.6,N
1546662075.6,286046996.7,N
1546662095.4,286046997.8,N
1546662115.2,286047000.8,N
1546662135.1,286047000.6,N
1546662136.0,286047000.6,N
1546662155.8,286047001.0,N
1546662175.7,286046998.2,N
1546662195.5,286047001.1,N
1546662215.3,286046998.6,N
1546662235.2,286046996.8,N
1546662255.0,286047000.3,N
1546662255.9,286047000.3,N
1546662275.8,286047002.0,N
1546662295.6,286047002.4,N
1546662315.4,286047000.7,N
1546662335.3,286047005.5,Y
1546662355.1,286047001.5,P
1546662375.8,286047000.9,N
1546662395.7,286047002.6,P
1546662415.5,286046998.8,N
1546662435.4,286046998.3,N
1546662455.2,286046999.2,N
1546662475.0,286046998.5,N
1546662475.9,286046998.5,N
1546662495.8,286046998.9,N
1546662515.6,286046998.9,N
1546662535.4,286046998.3,N
1546662555.3,286047000.7,N
1546662575.1,286046998.4,N
1546662595.9,286046999.3,N
1546662615.7,286046998.9,N
1546662635.5,286046999.0,N
1546662655.4,286046999.5,N
1546662675.2,286046996.8,N
1546662695.0,286046997.0,N
1546662695.9,286046997.0,N
1546662715.8,286046999.2,N
1546662735.6,286046998.0,N
1546662755.5,286046996.6,N
1546662775.3,286046996.9,N
1546662795.1,286046999.3,N
1546662815.9,286046998.2,N
1546662835.7,286047000.9,N
1546662855.5,286047000.8,N
1546662875.4,286046998.4,N
1546662895.2,286046996.8,N
1546662915.1,286047001.2,N
1546662916.0,286047001.2,N
1546662935.8,286046998.1,N
1546662955.6,286047002.0,N
1546662975.5,286047003.0,N
1546662995.3,286047003.2,N
1546663015.1,286047002.4,N
1546663035.9,286046999.8,N
1546663055.7,286047002.7,N
1546663075.6,286047002.7,N
1546663095.4,286047000.8,N
1546663115.2,286047001.2,N
1546663135.1,286046999.4,N
1546663136.0,286046999.4,N
1546663155.8,286046997.0,N
1546663175.7,286046999.3,N
1546663195.5,286047000.0,N
1546663215.3,286047000.5,N
1546663235.2,286046998.1,N
1546663255.0,286046998.3,N
1546663255.9,286046998.3,N
1546663275.8,286046999.2,N
1546663295.6,286046997.4,N
1546663315.4,286046996.9,N
1546663335.3,286046997.5,N
1546663355.1,286046995.4,N
1546663356.0,286046995.4,N
1546663375.8,286046995.8,N
1546663395.7,286046996.3,N
1546663415.5,286046995.7,N
1546663435.3,286046996.2,N
1546663455.2,286046996.9,N
1546663475.0,286046997.2,N
1546663475.9,286046997.2,N
1546663495.8,286046997.0,N
1546663515.6,286046999.4,N
1546663535.4,286046998.2,N
1546663555.3,286046999.9,N
1546663575.1,286046999.7,N
1546663595.9,286046999.9,N
1546663615.7,286047000.3,N
1546663635.5,286047001.1,N
1546663655.4,286047001.1,N
1546663675.2,286046998.8,N
1546663695.0,286046998.8,N
1546663695.9,286046998.8,N
1546663715.8,286046998.6,N
1546663735.6,286046999.2,N
1546663755.5,286046997.7,N
1546663775.3,286046997.5,N
1546663795.1,286046998.4,N
1546663815.9,286046998.8,N
1546663835.7,286046998.6,N
1546663855.5,286046998.5,N
1546663875.4,286046998.6,N
1546663895.2,286047000.5,N
1546663915.1,286046998.1,N
1546663916.0,286046998.1,N
1546663935.8,286046998.2,N
1546663955.6,286046999.8,N
1546663975.5,286047002.1,N
1546663995.3,286047000.1,N
1546664015.1,286047000.5,N
1546664035.9,286046998.4,N
1546664055.7,286046998.9,N
1546664075.6,286046998.7,N
1546664095.4,286046998.9,N
1546664115.2,286047000.7,N
1546664135.1,286046998.4,N
1546664136.0,286046998.4,N
1546664155.8,286046998.4,N
1546664175.7,286047000.9,N
1546664195.5,286047001.3,N
1546664215.3,286047003.9,Y
1546664235.2,286047002.7,P
1546664255.0,286047000.4,N
1546664255.9,286047000.4,N
1546664275.8,286047001.0,N
1546664295.6,286047000.4,N
1546664315.4,286046999.9,N
1546664335.3,286047001.0,N
1546664355.1,286047000.6,N
1546664375.8,286046999.8,N
1546664395.7,286047002.8,Y
